Weather in Zhuravli

Russia / Kursk Oblast     51°24′52″N   35°05′46″E
temp.,
°C
wind,
m/s
gust,
m/s
humid.,
%
clouds,
%
prec.,
mm/h
press.,
hPa
HPBL,
m
25 february, thu
thu2500:00−5ssw3797100 0.2 1031189
03:00−2sw4797100 0.3 1030242
06:00−2sw4798100 0.1 1028235
09:000wsw51098100 0.1 1027303
12:00+1wsw611100100 0.1 1025247
15:00+2w513100100 0.1 1024301
18:00+2w511100100 0.1 1023215
21:00+2w410100100 0.2 1023180
26 february, fri
fri2600:00+2wnw412100100 0.0 1023296
03:00+2wnw49100100 0.0 1023171
06:00+2w49100100 0.0 1021194
09:00+2wsw511100100 0.0 1020245
12:00+3wsw714100100 0.0 1018372
15:00+2w612100100 0.0 1017359
18:00+2wnw61299100 0.0 1015334
21:00+2w41198100 0.0 1015364
27 february, sat
sat2700:00+1w51297100 0.0 1013438
03:00+1w51096100 0.0 1012360
06:00+1w61198100 0.1 1011503
09:00+1w51198100 0.1 1010541
12:00+1wnw51099100 0.2 1009506
15:00+1wnw510100100 0.3 1009525
18:00+1wnw51098100 0.1 1009473
21:00+1nw61097100 0.2 1011557
28 february, sun
sun2800:000nnw51197100 0.1 1012504
03:000nnw61194100 0.3 1015706
06:00−2n6118799 0.1 1016790
09:00−2n7108698 0.2 1018850
12:00−2n6108499 0.0 1020797
15:000n588590 0.1 1020871
18:00−1nnw4988100 0.1 1022624
21:00−2nw389496 0.2 1023336
1 march, mon
mon100:00−2nne479699 0.1 1024410
03:00−3n249395 0.1 1026126
06:00−4nne239354 0.0 102797
09:00−4n239244 0.0 1029168
12:00−2n248143 0.0 1031602
15:00−1nnw247865 0.0 1031726
18:00−2wnw238340 0.0 103141
21:00−3w348629 0.0 103274